Location: Chiroubles
(46.1812°N, 4.6660°E)
Time: 06:25:30
(UTC+00:00)

Transit 4A - Pass Details

Date: 08 December 2020
Orbit: 864 x 980 km, 66.8° (Epoch: 25 January)

Event Time Altitude Azimuth Distance (km) Brightness Sun altitude
Rises 12:54:33 0° 328° (NNW) 3,686 10.7 18.6°
Reaches altitude 10° 12:57:24 10° 337° (NNW) 2,727 10.0 18.4°
Maximum altitude 13:03:14 36° 43° (NE) 1,477 8.7 18.1°
Drops below altitude 10° 13:08:55 10° 109° (ESE) 2,658 10.3 17.7°
Sets 13:11:38 0° 118° (ESE) 3,581 11.0 17.5°
